This is the latest recevied weather packets stored in our database for station/object ZS1OSS-13. If no packets are shown the sender has not sent any weather packets the latest 10 day(s).
| Time | Temp. | Humidity | Pressure | Rain* | Wind** | Luminosity | Snow |
|---|---|---|---|---|---|---|---|
| 1777991864 | 17.78° C | 60% | 1014.6 hPa | 0 mm | - | 50 W/m² | - |
| 1777991562 | 18.33° C | 60% | 1014.7 hPa | 0 mm | - | 53 W/m² | - |
| 1777991258 | 18.89° C | 59% | 1014.6 hPa | 0 mm | - | 64 W/m² | - |
| 1777990956 | 18.33° C | 62% | 1014.4 hPa | 0 mm | - | 185 W/m² | - |
| 1777990654 | 18.33° C | 63% | 1014.6 hPa | 0 mm | - | 83 W/m² | - |
| 1777990351 | 18.89° C | 61% | 1014.2 hPa | 0 mm | - | 94 W/m² | - |
| 1777990046 | 18.33° C | 60% | 1014.4 hPa | 0 mm | - | 265 W/m² | - |
| 1777988227 | 17.78° C | 62% | 1014.3 hPa | 0 mm | - | 280 W/m² | - |
| 1777987923 | 17.78° C | 64% | 1014 hPa | 0 mm | - | 63 W/m² | - |
| 1777987619 | 17.78° C | 64% | 1014 hPa | 0 mm | - | 55 W/m² | - |
| 1777987317 | 17.78° C | 64% | 1014 hPa | 0 mm | - | 53 W/m² | - |
| 1777987014 | 17.78° C | 71% | 1014.2 hPa | 0 mm | - | 58 W/m² | - |
| 1777985501 | 20° C | 66% | 1014.1 hPa | 0 mm | - | 510 W/m² | - |
| 1777984589 | 20° C | 63% | 1014.1 hPa | 0 mm | - | 554 W/m² | - |
| 1777984286 | 20° C | 62% | 1014.2 hPa | 0 mm | - | 544 W/m² | - |
| 1777983983 | 20° C | 61% | 1014.3 hPa | 0 mm | - | 524 W/m² | - |
| 1777983681 | 20° C | 60% | 1014 hPa | 0 mm | - | 500 W/m² | - |
| 1777981251 | 20.56° C | 59% | 1014.4 hPa | 0 mm | - | 497 W/m² | - |
| 1777980947 | 20° C | 59% | 1014.3 hPa | 0 mm | - | 503 W/m² | - |
| 1777980644 | 20° C | 59% | 1014.6 hPa | 0 mm | - | 506 W/m² | - |
| 1777980340 | 20° C | 60% | 1014.6 hPa | 0 mm | - | 506 W/m² | - |
| 1777980039 | 20° C | 63% | 1014.7 hPa | 0 mm | - | 507 W/m² | - |
| 1777979732 | 18.89° C | 64% | 1014.7 hPa | 0 mm | - | 505 W/m² | - |
| 1777979429 | 19.44° C | 61% | 1014.7 hPa | 0 mm | - | 508 W/m² | - |
| 1777979126 | 18.89° C | 65% | 1014.8 hPa | 0 mm | - | 514 W/m² | - |
* Rain latest hour (hover to see other rain measurements)
** Current wind speed in m/s (hover to see current wind gust speed)